Terminal Aerodrome Forecast
Issued by NWS Green Bay, WI

Home | Current Version | Previous Version | Text Only | Print | Product List | Glossary Off
Versions: 1 2 3 4 5 6 7 8 9 10 11 12 13 14 15 16 17 18 19 20 21 22 23 24 25 26 27 28 29 30 31 32 33 34

000
FTUS43 KGRB 041123
TAFGRB
TAF
KGRB 041123Z 0412/0512 27004KT P6SM SCT040 SCT070
     FM041500 31009KT P6SM BKN045 BKN080
     FM042100 04010KT P6SM SCT040 SCT080
     FM050100 05004KT P6SM FEW080=

USA.gov is the U.S. government's official web portal to all federal, state and local government web resources and services.